This is the latest recevied weather packets stored in our database for station/object G4GVZ-1. If no packets are shown the sender has not sent any weather packets the latest 10 day(s).
| Time | Temp. | Humidity | Pressure | Rain* | Wind** | Luminosity | Snow |
|---|---|---|---|---|---|---|---|
| 1777860049 | 11.67° C | 94% | 1011.6 hPa | 0 mm | - | - | - |
| 1777859149 | 11.67° C | 95% | 1011.5 hPa | 0 mm | - | - | - |
| 1777858248 | 11.67° C | 95% | 1011.5 hPa | 0 mm | - | - | - |
| 1777857350 | 11.67° C | 96% | 1011.4 hPa | 0 mm | - | - | - |
| 1777856450 | 11.67° C | 96% | 1011.5 hPa | 0 mm | - | - | - |
| 1777855550 | 11.67° C | 95% | 1011.4 hPa | 0 mm | - | - | - |
| 1777854650 | 12.22° C | 95% | 1011.4 hPa | 0 mm | - | - | - |
| 1777853749 | 12.22° C | 94% | 1011.4 hPa | 0 mm | - | - | - |
| 1777852849 | 12.22° C | 94% | 1011.2 hPa | 0 mm | - | - | - |
| 1777851949 | 12.22° C | 94% | 1011.1 hPa | 0 mm | - | - | - |
| 1777851048 | 12.22° C | 95% | 1011.2 hPa | 0 mm | - | - | - |
| 1777850148 | 12.22° C | 94% | 1011.2 hPa | 0 mm | - | - | - |
| 1777849248 | 12.78° C | 95% | 1011 hPa | 0 mm | - | - | - |
| 1777848351 | 12.78° C | 96% | 1010.9 hPa | 0.51 mm | - | - | - |
| 1777847450 | 12.78° C | 95% | 1010.9 hPa | 1.02 mm | - | - | - |
| 1777846550 | 12.78° C | 95% | 1011 hPa | 1.78 mm | - | - | - |
| 1777845650 | 12.78° C | 94% | 1010.7 hPa | 3.05 mm | - | - | - |
| 1777844750 | 12.78° C | 94% | 1010.7 hPa | 3.56 mm | - | - | - |
| 1777843850 | 12.78° C | 93% | 1010.6 hPa | 2.79 mm | - | - | - |
| 1777842949 | 12.78° C | 92% | 1010.5 hPa | 2.29 mm | - | - | - |
| 1777842049 | 13.33° C | 90% | 1010.4 hPa | 0.51 mm | - | - | - |
| 1777841151 | 13.33° C | 87% | 1010.2 hPa | 0 mm | - | - | - |
| 1777840252 | 13.33° C | 87% | 1010.1 hPa | 0 mm | - | - | - |
| 1777839351 | 13.33° C | 87% | 1009.9 hPa | 0 mm | - | - | - |
| 1777838450 | 13.89° C | 84% | 1009.6 hPa | 0 mm | - | - | - |
* Rain latest hour (hover to see other rain measurements)
** Current wind speed in m/s (hover to see current wind gust speed)